Time,TemperatureF,DewpointF,PressureIn,WindDirection,WindDirectionDegrees,WindSpeedMPH,WindSpeedGustMPH,Humidity,HourlyPrecipIn,Conditions,Clouds,dailyrainin,SoftwareType,DateUTC
2013-04-02 00:00:00,59.4,54.9,29.88,WNW,284,1.0,1.0,85,0.00,,,0.00,Wunderground v.1.15,2013-04-02 04:00:00,
2013-04-02 00:05:00,59.5,54.7,29.88,WNW,284,1.0,1.0,84,0.00,,,0.00,Wunderground v.1.15,2013-04-02 04:05:00,
2013-04-02 00:10:00,59.4,54.9,29.88,WNW,284,1.0,1.0,85,0.00,,,0.00,Wunderground v.1.15,2013-04-02 04:10:00,
2013-04-02 00:20:00,59.8,55.0,29.89,WNW,284,0.0,0.0,84,0.00,,,0.00,Wunderground v.1.15,2013-04-02 04:20:00,
2013-04-02 00:25:00,59.5,54.7,29.89,WNW,284,1.0,2.0,84,0.00,,,0.00,Wunderground v.1.15,2013-04-02 04:25:00,
2013-04-02 00:35:00,58.6,53.8,29.91,NNW,329,3.0,4.0,84,0.00,,,0.00,Wunderground v.1.15,2013-04-02 04:35:00,
2013-04-02 00:40:00,58.5,53.7,29.91,NNW,327,4.0,4.0,84,0.00,,,0.00,Wunderground v.1.15,2013-04-02 04:40:00,
2013-04-02 00:50:00,58.5,53.4,29.91,NW,319,2.0,2.0,83,0.00,,,0.00,Wunderground v.1.15,2013-04-02 04:50:00,
2013-04-02 00:55:00,58.2,53.1,29.91,NW,319,1.0,2.0,83,0.00,,,0.00,Wunderground v.1.15,2013-04-02 04:55:00,
2013-04-02 01:05:00,57.8,53.0,29.91,NW,319,1.0,1.0,84,0.00,,,0.00,Wunderground v.1.15,2013-04-02 05:05:00,
2013-04-02 01:10:00,57.8,52.7,29.92,NW,319,1.0,1.0,83,0.00,,,0.00,Wunderground v.1.15,2013-04-02 05:10:00,
2013-04-02 01:20:00,58.0,52.2,29.92,NW,319,1.0,1.0,81,0.00,,,0.00,Wunderground v.1.15,2013-04-02 05:20:00,
2013-04-02 01:30:00,57.8,51.7,29.92,NW,319,2.0,2.0,80,0.00,,,0.00,Wunderground v.1.15,2013-04-02 05:30:00,
2013-04-02 01:35:00,57.7,51.6,29.92,NW,319,1.0,2.0,80,0.00,,,0.00,Wunderground v.1.15,2013-04-02 05:35:00,
2013-04-02 01:45:00,57.5,51.4,29.93,NW,319,2.0,3.0,80,0.00,,,0.00,Wunderground v.1.15,2013-04-02 05:45:00,
2013-04-02 01:50:00,57.3,51.2,29.93,NW,319,2.0,2.0,80,0.00,,,0.00,Wunderground v.1.15,2013-04-02 05:50:00,
2013-04-02 02:00:00,57.2,51.1,29.93,NW,319,2.0,2.0,80,0.00,,,0.00,Wunderground v.1.15,2013-04-02 06:00:00,
2013-04-02 02:05:00,57.0,50.5,29.93,NW,319,2.0,2.0,79,0.00,,,0.00,Wunderground v.1.15,2013-04-02 06:05:00,
2013-04-02 02:15:00,56.3,50.2,29.93,NW,319,2.0,2.0,80,0.00,,,0.00,Wunderground v.1.15,2013-04-02 06:15:00,
2013-04-02 02:20:00,55.9,50.2,29.93,NW,319,1.0,2.0,81,0.00,,,0.00,Wunderground v.1.15,2013-04-02 06:20:00,
2013-04-02 02:30:00,56.3,48.5,29.93,NW,319,2.0,3.0,75,0.00,,,0.00,Wunderground v.1.15,2013-04-02 06:30:00,
2013-04-02 02:40:00,56.3,47.4,29.94,NW,319,2.0,2.0,72,0.00,,,0.00,Wunderground v.1.15,2013-04-02 06:40:00,
2013-04-02 02:50:00,56.3,47.0,29.94,North,355,3.0,3.0,71,0.00,,,0.00,Wunderground v.1.15,2013-04-02 06:50:00,
2013-04-02 03:00:00,56.3,46.6,29.94,North,355,3.0,3.0,70,0.00,,,0.00,Wunderground v.1.15,2013-04-02 07:00:00,
2013-04-02 03:05:00,56.2,46.5,29.94,North,355,2.0,3.0,70,0.00,,,0.00,Wunderground v.1.15,2013-04-02 07:05:00,
2013-04-02 03:15:00,55.8,46.2,29.94,North,355,1.0,2.0,70,0.00,,,0.00,Wunderground v.1.15,2013-04-02 07:15:00,
2013-04-02 03:25:00,55.9,45.5,29.94,North,355,2.0,2.0,68,0.00,,,0.00,Wunderground v.1.15,2013-04-02 07:25:00,
2013-04-02 03:35:00,55.8,45.0,29.94,North,355,1.0,3.0,67,0.00,,,0.00,Wunderground v.1.15,2013-04-02 07:35:00,
2013-04-02 03:45:00,56.0,44.4,29.95,North,355,2.0,3.0,65,0.00,,,0.00,Wunderground v.1.15,2013-04-02 07:45:00,
2013-04-02 03:50:00,56.0,44.4,29.95,North,355,2.0,2.0,65,0.00,,,0.00,Wunderground v.1.15,2013-04-02 07:50:00,
2013-04-02 04:00:00,55.6,44.4,29.94,North,355,2.0,2.0,66,0.00,,,0.00,Wunderground v.1.15,2013-04-02 08:00:00,
2013-04-02 04:10:00,55.2,44.0,29.94,North,355,2.0,2.0,66,0.00,,,0.00,Wunderground v.1.15,2013-04-02 08:10:00,
2013-04-02 04:20:00,54.8,44.0,29.94,North,355,1.0,1.0,67,0.00,,,0.00,Wunderground v.1.15,2013-04-02 08:20:00,
2013-04-02 04:30:00,54.5,44.5,29.94,North,355,2.0,5.0,69,0.00,,,0.00,Wunderground v.1.15,2013-04-02 08:30:00,
2013-04-02 04:40:00,54.4,44.4,29.95,North,355,3.0,3.0,69,0.00,,,0.00,Wunderground v.1.15,2013-04-02 08:40:00,
2013-04-02 04:45:00,54.3,44.3,29.96,North,355,3.0,3.0,69,0.00,,,0.00,Wunderground v.1.15,2013-04-02 08:45:00,
2013-04-02 04:55:00,54.0,44.1,29.96,North,355,3.0,4.0,69,0.00,,,0.00,Wunderground v.1.15,2013-04-02 08:55:00,
2013-04-02 05:00:00,53.8,44.2,29.96,North,355,3.0,3.0,70,0.00,,,0.00,Wunderground v.1.15,2013-04-02 09:00:00,
2013-04-02 05:10:00,53.4,43.9,29.97,NNE,21,3.0,4.0,70,0.00,,,0.00,Wunderground v.1.15,2013-04-02 09:10:00,
2013-04-02 05:15:00,53.1,43.9,29.97,North,355,4.0,5.0,71,0.00,,,0.00,Wunderground v.1.15,2013-04-02 09:15:00,
2013-04-02 05:25:00,53.0,43.8,29.98,NNE,23,5.0,5.0,71,0.00,,,0.00,Wunderground v.1.15,2013-04-02 09:25:00,
2013-04-02 05:35:00,52.7,43.6,29.98,NNE,26,5.0,5.0,71,0.00,,,0.00,Wunderground v.1.15,2013-04-02 09:35:00,
2013-04-02 05:45:00,52.1,43.3,29.99,NE,39,4.0,6.0,72,0.00,,,0.00,Wunderground v.1.15,2013-04-02 09:45:00,
2013-04-02 05:50:00,51.8,43.4,29.99,NNE,30,3.0,3.0,73,0.00,,,0.00,Wunderground v.1.15,2013-04-02 09:50:00,
2013-04-02 06:00:00,51.4,43.4,30.00,NE,42,3.0,3.0,74,0.00,,,0.00,Wunderground v.1.15,2013-04-02 10:00:00,
2013-04-02 06:05:00,51.4,43.4,30.00,NE,39,4.0,4.0,74,0.00,,,0.00,Wunderground v.1.15,2013-04-02 10:05:00,
2013-04-02 06:15:00,51.1,43.1,30.01,NE,34,4.0,5.0,74,0.00,,,0.00,Wunderground v.1.15,2013-04-02 10:15:00,
2013-04-02 06:20:00,50.9,43.3,30.01,NNE,30,3.0,3.0,75,0.00,,,0.00,Wunderground v.1.15,2013-04-02 10:20:00,
2013-04-02 06:30:00,50.7,43.1,30.01,North,5,4.0,4.0,75,0.00,,,0.00,Wunderground v.1.15,2013-04-02 10:30:00,
2013-04-02 06:35:00,50.5,42.9,30.02,NNE,20,5.0,8.0,75,0.00,,,0.00,Wunderground v.1.15,2013-04-02 10:35:00,
2013-04-02 06:45:00,50.2,41.9,30.03,NNE,18,5.0,6.0,73,0.00,,,0.00,Wunderground v.1.15,2013-04-02 10:45:00,
2013-04-02 06:50:00,50.1,41.4,30.04,NNE,13,5.0,5.0,72,0.00,,,0.00,Wunderground v.1.15,2013-04-02 10:50:00,
2013-04-02 07:00:00,50.0,40.6,30.05,NNE,28,7.0,7.0,70,0.00,,,0.00,Wunderground v.1.15,2013-04-02 11:00:00,
2013-04-02 07:10:00,49.6,40.2,30.05,NE,47,5.0,5.0,70,0.00,,,0.00,Wunderground v.1.15,2013-04-02 11:10:00,
2013-04-02 07:20:00,49.3,39.2,30.06,NNE,29,5.0,5.0,68,0.00,,,0.00,Wunderground v.1.15,2013-04-02 11:20:00,
2013-04-02 07:30:00,49.3,38.8,30.07,NE,38,6.0,6.0,67,0.00,,,0.00,Wunderground v.1.15,2013-04-02 11:30:00,
2013-04-02 07:35:00,49.4,38.9,30.07,NNE,33,5.0,6.0,67,0.00,,,0.00,Wunderground v.1.15,2013-04-02 11:35:00,
2013-04-02 07:45:00,49.4,38.1,30.07,NNE,32,4.0,5.0,65,0.00,,,0.00,Wunderground v.1.15,2013-04-02 11:45:00,
2013-04-02 07:50:00,49.6,37.9,30.08,NE,46,4.0,6.0,64,0.00,,,0.00,Wunderground v.1.15,2013-04-02 11:50:00,
2013-04-02 08:00:00,49.9,37.8,30.08,NE,34,4.0,4.0,63,0.00,,,0.00,Wunderground v.1.15,2013-04-02 12:00:00,
2013-04-02 08:05:00,50.0,37.5,30.08,NE,50,4.0,4.0,62,0.00,,,0.00,Wunderground v.1.15,2013-04-02 12:05:00,
2013-04-02 08:15:00,50.3,36.9,30.09,NE,36,5.0,5.0,60,0.00,,,0.00,Wunderground v.1.15,2013-04-02 12:15:00,
2013-04-02 08:20:00,50.5,37.1,30.09,NNE,18,5.0,5.0,60,0.00,,,0.00,Wunderground v.1.15,2013-04-02 12:20:00,
2013-04-02 08:30:00,50.8,36.1,30.10,NE,40,5.0,6.0,57,0.00,,,0.00,Wunderground v.1.15,2013-04-02 12:30:00,
2013-04-02 08:35:00,50.8,36.5,30.10,NNE,26,6.0,6.0,58,0.00,,,0.00,Wunderground v.1.15,2013-04-02 12:35:00,
2013-04-02 08:45:00,51.2,36.9,30.10,NE,48,6.0,7.0,58,0.00,,,0.00,Wunderground v.1.15,2013-04-02 12:45:00,
2013-04-02 08:50:00,51.4,36.7,30.10,NE,37,5.0,5.0,57,0.00,,,0.00,Wunderground v.1.15,2013-04-02 12:50:00,
2013-04-02 09:00:00,52.0,36.3,30.10,NE,47,6.0,7.0,55,0.00,,,0.00,Wunderground v.1.15,2013-04-02 13:00:00,
2013-04-02 09:10:00,52.1,33.5,30.10,NE,55,8.0,8.0,49,0.00,,,0.00,Wunderground v.1.15,2013-04-02 13:10:00,
2013-04-02 09:20:00,52.7,34.6,30.10,North,355,7.0,10.0,50,0.00,,,0.00,Wunderground v.1.15,2013-04-02 13:20:00,
2013-04-02 09:25:00,52.8,34.7,30.10,NE,42,7.0,10.0,50,0.00,,,0.00,Wunderground v.1.15,2013-04-02 13:25:00,
2013-04-02 09:35:00,52.9,34.2,30.10,NE,34,9.0,15.0,49,0.00,,,0.00,Wunderground v.1.15,2013-04-02 13:35:00,
2013-04-02 09:45:00,53.3,33.6,30.11,NE,38,8.0,12.0,47,0.00,,,0.00,Wunderground v.1.15,2013-04-02 13:45:00,
2013-04-02 09:55:00,54.0,33.7,30.10,NE,38,7.0,8.0,46,0.00,,,0.00,Wunderground v.1.15,2013-04-02 13:55:00,
2013-04-02 10:05:00,53.9,33.6,30.10,NE,41,9.0,11.0,46,0.00,,,0.00,Wunderground v.1.15,2013-04-02 14:05:00,
2013-04-02 10:10:00,54.3,34.5,30.11,NNE,22,8.0,9.0,47,0.00,,,0.00,Wunderground v.1.15,2013-04-02 14:10:00,
2013-04-02 10:20:00,54.9,34.5,30.11,NNE,31,6.0,8.0,46,0.00,,,0.00,Wunderground v.1.15,2013-04-02 14:20:00,
2013-04-02 10:30:00,55.0,33.5,30.11,NE,53,7.0,8.0,44,0.00,,,0.00,Wunderground v.1.15,2013-04-02 14:30:00,
2013-04-02 10:40:00,55.1,33.0,30.11,East,86,7.0,7.0,43,0.00,,,0.00,Wunderground v.1.15,2013-04-02 14:40:00,
2013-04-02 10:45:00,55.3,33.2,30.12,NE,55,6.0,7.0,43,0.00,,,0.00,Wunderground v.1.15,2013-04-02 14:45:00,
2013-04-02 10:55:00,55.9,33.1,30.13,NNE,13,4.0,6.0,42,0.00,,,0.00,Wunderground v.1.15,2013-04-02 14:55:00,
2013-04-02 11:00:00,55.7,32.9,30.13,ENE,65,5.0,7.0,42,0.00,,,0.00,Wunderground v.1.15,2013-04-02 15:00:00,
2013-04-02 11:10:00,55.6,32.8,30.12,North,360,4.0,4.0,42,0.00,,,0.00,Wunderground v.1.15,2013-04-02 15:10:00,
2013-04-02 11:20:00,56.1,33.3,30.11,NNE,32,6.0,7.0,42,0.00,,,0.00,Wunderground v.1.15,2013-04-02 15:20:00,
2013-04-02 11:25:00,56.3,33.5,30.10,WNW,298,6.0,7.0,42,0.00,,,0.00,Wunderground v.1.15,2013-04-02 15:25:00,
2013-04-02 11:35:00,56.8,33.9,30.11,ENE,77,6.0,7.0,42,0.00,,,0.00,Wunderground v.1.15,2013-04-02 15:35:00,
2013-04-02 11:45:00,56.9,34.0,30.11,ESE,105,4.0,7.0,42,0.00,,,0.00,Wunderground v.1.15,2013-04-02 15:45:00,
2013-04-02 11:55:00,57.3,34.4,30.11,NNE,22,4.0,4.0,42,0.00,,,0.00,Wunderground v.1.15,2013-04-02 15:55:00,
2013-04-02 12:05:00,57.4,34.5,30.11,North,5,4.0,4.0,42,0.00,,,0.00,Wunderground v.1.15,2013-04-02 16:05:00,
2013-04-02 12:10:00,58.2,35.2,30.11,NNE,19,4.0,5.0,42,0.00,,,0.00,Wunderground v.1.15,2013-04-02 16:10:00,
2013-04-02 12:20:00,57.7,36.5,30.10,ENE,61,3.0,5.0,45,0.00,,,0.00,Wunderground v.1.15,2013-04-02 16:20:00,
2013-04-02 12:30:00,58.0,33.8,30.09,NE,49,5.0,5.0,40,0.00,,,0.00,Wunderground v.1.15,2013-04-02 16:30:00,
2013-04-02 12:40:00,58.6,34.3,30.09,NNE,13,3.0,6.0,40,0.00,,,0.00,Wunderground v.1.15,2013-04-02 16:40:00,
2013-04-02 12:50:00,59.1,35.4,30.09,North,355,3.0,3.0,41,0.00,,,0.00,Wunderground v.1.15,2013-04-02 16:50:00,
2013-04-02 13:00:00,59.2,35.5,30.09,NNE,33,5.0,5.0,41,0.00,,,0.00,Wunderground v.1.15,2013-04-02 17:00:00,
2013-04-02 13:05:00,59.3,36.8,30.09,ENE,68,4.0,5.0,43,0.00,,,0.00,Wunderground v.1.15,2013-04-02 17:05:00,
2013-04-02 13:15:00,59.1,34.8,30.09,East,86,4.0,9.0,40,0.00,,,0.00,Wunderground v.1.15,2013-04-02 17:15:00,
2013-04-02 13:25:00,59.6,37.1,30.09,ESE,115,4.0,7.0,43,0.00,,,0.00,Wunderground v.1.15,2013-04-02 17:25:00,
2013-04-02 13:35:00,60.7,37.5,30.08,North,355,4.0,4.0,42,0.00,,,0.00,Wunderground v.1.15,2013-04-02 17:35:00,
2013-04-02 13:45:00,60.6,38.0,30.08,NW,315,2.0,3.0,43,0.00,,,0.00,Wunderground v.1.15,2013-04-02 17:45:00,
2013-04-02 13:55:00,60.7,35.6,30.08,West,263,4.0,4.0,39,0.00,,,0.00,Wunderground v.1.15,2013-04-02 17:55:00,
2013-04-02 14:05:00,60.5,36.0,30.07,WSW,257,3.0,6.0,40,0.00,,,0.00,Wunderground v.1.15,2013-04-02 18:05:00,
2013-04-02 14:15:00,60.3,35.9,30.06,NE,54,2.0,3.0,40,0.00,,,0.00,Wunderground v.1.15,2013-04-02 18:15:00,
2013-04-02 14:25:00,61.3,38.0,30.06,SW,233,3.0,5.0,42,0.00,,,0.00,Wunderground v.1.15,2013-04-02 18:25:00,
2013-04-02 14:30:00,61.6,37.0,30.06,WSW,247,3.0,4.0,40,0.00,,,0.00,Wunderground v.1.15,2013-04-02 18:30:00,
2013-04-02 14:40:00,62.1,37.5,30.05,NW,316,3.0,3.0,40,0.00,,,0.00,Wunderground v.1.15,2013-04-02 18:40:00,
2013-04-02 14:45:00,62.4,36.4,30.06,WNW,303,4.0,4.0,38,0.00,,,0.00,Wunderground v.1.15,2013-04-02 18:45:00,
2013-04-02 14:55:00,62.3,38.3,30.05,WNW,292,2.0,5.0,41,0.00,,,0.00,Wunderground v.1.15,2013-04-02 18:55:00,
2013-04-02 15:05:00,62.8,37.5,30.04,North,355,3.0,4.0,39,0.00,,,0.00,Wunderground v.1.15,2013-04-02 19:05:00,
2013-04-02 15:15:00,63.4,38.6,30.04,NW,321,3.0,5.0,40,0.00,,,0.00,Wunderground v.1.15,2013-04-02 19:15:00,
2013-04-02 15:25:00,63.4,38.0,30.04,West,271,4.0,4.0,39,0.00,,,0.00,Wunderground v.1.15,2013-04-02 19:25:00,
2013-04-02 15:30:00,63.6,38.8,30.04,NNE,17,2.0,2.0,40,0.00,,,0.00,Wunderground v.1.15,2013-04-02 19:30:00,
2013-04-02 15:40:00,61.9,39.1,30.04,SE,142,4.0,10.0,43,0.00,,,0.00,Wunderground v.1.15,2013-04-02 19:40:00,
2013-04-02 15:50:00,61.7,41.3,30.03,SE,136,7.0,10.0,47,0.00,,,0.00,Wunderground v.1.15,2013-04-02 19:50:00,
2013-04-02 15:55:00,61.1,40.7,30.03,South,182,6.0,10.0,47,0.00,,,0.00,Wunderground v.1.15,2013-04-02 19:55:00,
2013-04-02 16:05:00,61.4,41.0,30.03,SSE,151,8.0,10.0,47,0.00,,,0.00,Wunderground v.1.15,2013-04-02 20:05:00,
2013-04-02 16:15:00,60.6,40.8,30.03,SSE,167,7.0,8.0,48,0.00,,,0.00,Wunderground v.1.15,2013-04-02 20:15:00,
2013-04-02 16:25:00,60.4,40.1,30.03,SE,135,6.0,6.0,47,0.00,,,0.00,Wunderground v.1.15,2013-04-02 20:25:00,
2013-04-02 16:30:00,60.8,40.4,30.03,SSE,153,6.0,9.0,47,0.00,,,0.00,Wunderground v.1.15,2013-04-02 20:30:00,
2013-04-02 16:40:00,60.1,39.8,30.03,SSE,155,6.0,9.0,47,0.00,,,0.00,Wunderground v.1.15,2013-04-02 20:40:00,
2013-04-02 16:50:00,60.0,41.3,30.03,SE,143,6.0,9.0,50,0.00,,,0.00,Wunderground v.1.15,2013-04-02 20:50:00,
2013-04-02 17:00:00,59.5,42.8,30.04,SSE,150,8.0,13.0,54,0.00,,,0.00,Wunderground v.1.15,2013-04-02 21:00:00,
2013-04-02 17:10:00,59.4,40.7,30.04,SSE,153,7.0,8.0,50,0.00,,,0.00,Wunderground v.1.15,2013-04-02 21:10:00,
2013-04-02 17:20:00,58.8,41.2,30.04,SSE,149,8.0,9.0,52,0.00,,,0.00,Wunderground v.1.15,2013-04-02 21:20:00,
2013-04-02 17:25:00,58.8,40.7,30.04,SE,144,8.0,11.0,51,0.00,,,0.00,Wunderground v.1.15,2013-04-02 21:25:00,
2013-04-02 17:30:00,58.9,40.3,30.03,SE,141,9.0,9.0,50,0.00,,,0.00,Wunderground v.1.15,2013-04-02 21:30:00,
2013-04-02 17:40:00,58.5,41.4,30.04,SE,143,10.0,10.0,53,0.00,,,0.00,Wunderground v.1.15,2013-04-02 21:40:00,
2013-04-02 17:45:00,58.8,42.2,30.04,SSE,155,9.0,12.0,54,0.00,,,0.00,Wunderground v.1.15,2013-04-02 21:45:00,
2013-04-02 17:55:00,58.7,41.1,30.05,SSE,155,8.0,11.0,52,0.00,,,0.00,Wunderground v.1.15,2013-04-02 21:55:00,
2013-04-02 18:05:00,58.4,41.8,30.05,SSE,150,9.0,9.0,54,0.00,,,0.00,Wunderground v.1.15,2013-04-02 22:05:00,
2013-04-02 18:10:00,58.3,42.2,30.05,South,178,8.0,8.0,55,0.00,,,0.00,Wunderground v.1.15,2013-04-02 22:10:00,
2013-04-02 18:20:00,58.1,42.5,30.05,SSE,161,7.0,7.0,56,0.00,,,0.00,Wunderground v.1.15,2013-04-02 22:20:00,
2013-04-02 18:30:00,57.9,42.3,30.06,South,184,6.0,7.0,56,0.00,,,0.00,Wunderground v.1.15,2013-04-02 22:30:00,
2013-04-02 18:40:00,57.7,42.1,30.05,SSE,160,7.0,10.0,56,0.00,,,0.00,Wunderground v.1.15,2013-04-02 22:40:00,
2013-04-02 18:45:00,57.3,42.6,30.05,SSE,148,7.0,10.0,58,0.00,,,0.00,Wunderground v.1.15,2013-04-02 22:45:00,
2013-04-02 18:55:00,57.2,43.0,30.05,SSE,160,6.0,10.0,59,0.00,,,0.00,Wunderground v.1.15,2013-04-02 22:55:00,
2013-04-02 19:05:00,56.7,42.5,30.05,SE,144,6.0,9.0,59,0.00,,,0.00,Wunderground v.1.15,2013-04-02 23:05:00,
2013-04-02 19:15:00,56.4,43.1,30.05,SSE,152,5.0,9.0,61,0.00,,,0.00,Wunderground v.1.15,2013-04-02 23:15:00,
2013-04-02 19:25:00,56.0,43.2,30.05,SSE,156,5.0,6.0,62,0.00,,,0.00,Wunderground v.1.15,2013-04-02 23:25:00,
2013-04-02 19:30:00,55.8,43.0,30.05,SSE,161,3.0,3.0,62,0.00,,,0.00,Wunderground v.1.15,2013-04-02 23:30:00,
2013-04-02 19:40:00,55.5,43.5,30.05,SSE,148,4.0,7.0,64,0.00,,,0.00,Wunderground v.1.15,2013-04-02 23:40:00,
2013-04-02 19:50:00,55.1,43.5,30.05,SSE,160,5.0,5.0,65,0.00,,,0.00,Wunderground v.1.15,2013-04-02 23:50:00,
2013-04-02 20:00:00,54.8,43.7,30.06,SSE,158,4.0,5.0,66,0.00,,,0.00,Wunderground v.1.15,2013-04-03 00:00:00,
2013-04-02 20:10:00,54.5,44.2,30.06,South,175,3.0,3.0,68,0.00,,,0.00,Wunderground v.1.15,2013-04-03 00:10:00,
2013-04-02 20:25:00,54.2,44.2,30.06,SSE,160,2.0,2.0,69,0.00,,,0.00,Wunderground v.1.15,2013-04-03 00:25:00,
2013-04-02 20:35:00,54.0,44.1,30.06,South,174,2.0,2.0,69,0.00,,,0.00,Wunderground v.1.15,2013-04-03 00:35:00,
2013-04-02 20:50:00,53.7,44.1,30.07,South,180,1.0,2.0,70,0.00,,,0.00,Wunderground v.1.15,2013-04-03 00:50:00,
2013-04-02 20:55:00,53.5,44.3,30.07,South,180,1.0,3.0,71,0.00,,,0.00,Wunderground v.1.15,2013-04-03 00:55:00,
2013-04-02 21:05:00,53.3,44.1,30.07,South,180,1.0,1.0,71,0.00,,,0.00,Wunderground v.1.15,2013-04-03 01:05:00,
2013-04-02 21:10:00,53.3,44.5,30.07,South,178,1.0,1.0,72,0.00,,,0.00,Wunderground v.1.15,2013-04-03 01:10:00,
2013-04-02 21:20:00,53.2,44.4,30.07,South,184,1.0,3.0,72,0.00,,,0.00,Wunderground v.1.15,2013-04-03 01:20:00,
2013-04-02 21:25:00,53.1,44.3,30.08,South,184,1.0,3.0,72,0.00,,,0.00,Wunderground v.1.15,2013-04-03 01:25:00,
2013-04-02 21:35:00,52.9,44.5,30.08,South,177,1.0,2.0,73,0.00,,,0.00,Wunderground v.1.15,2013-04-03 01:35:00,
2013-04-02 21:40:00,52.8,44.7,30.08,SSE,163,1.0,1.0,74,0.00,,,0.00,Wunderground v.1.15,2013-04-03 01:40:00,
2013-04-02 21:50:00,52.8,44.7,30.08,SSE,165,1.0,1.0,74,0.00,,,0.00,Wunderground v.1.15,2013-04-03 01:50:00,
2013-04-02 21:55:00,52.9,44.8,30.08,SSE,165,1.0,1.0,74,0.00,,,0.00,Wunderground v.1.15,2013-04-03 01:55:00,
2013-04-02 22:05:00,52.8,44.7,30.08,South,178,1.0,1.0,74,0.00,,,0.00,Wunderground v.1.15,2013-04-03 02:05:00,
2013-04-02 22:10:00,52.7,45.0,30.08,South,178,0.0,1.0,75,0.00,,,0.00,Wunderground v.1.15,2013-04-03 02:10:00,
2013-04-02 22:25:00,52.3,45.0,30.08,South,178,0.0,1.0,76,0.00,,,0.00,Wunderground v.1.15,2013-04-03 02:25:00,
2013-04-02 22:35:00,52.3,45.3,30.08,South,178,1.0,2.0,77,0.00,,,0.00,Wunderground v.1.15,2013-04-03 02:35:00,
2013-04-02 22:40:00,52.4,45.4,30.08,South,178,2.0,3.0,77,0.00,,,0.00,Wunderground v.1.15,2013-04-03 02:40:00,
2013-04-02 22:55:00,52.3,46.0,30.08,SSE,155,2.0,3.0,79,0.00,,,0.00,Wunderground v.1.15,2013-04-03 02:55:00,
2013-04-02 23:05:00,52.4,46.4,30.08,SSE,155,1.0,1.0,80,0.00,,,0.00,Wunderground v.1.15,2013-04-03 03:05:00,
2013-04-02 23:10:00,52.4,46.4,30.07,SSE,155,0.0,0.0,80,0.00,,,0.00,Wunderground v.1.15,2013-04-03 03:10:00,
2013-04-02 23:20:00,52.5,47.2,30.07,SE,146,2.0,4.0,82,0.00,,,0.00,Wunderground v.1.15,2013-04-03 03:20:00,
2013-04-02 23:25:00,52.5,47.2,30.06,SSE,153,3.0,4.0,82,0.00,,,0.00,Wunderground v.1.15,2013-04-03 03:25:00,
2013-04-02 23:35:00,52.2,46.9,30.07,SSE,156,2.0,3.0,82,0.00,,,0.00,Wunderground v.1.15,2013-04-03 03:35:00,
2013-04-02 23:40:00,51.9,46.9,30.07,SSE,156,0.0,0.0,83,0.00,,,0.00,Wunderground v.1.15,2013-04-03 03:40:00,
2013-04-02 23:50:00,52.0,47.3,30.07,SSE,156,0.0,1.0,84,0.00,,,0.00,Wunderground v.1.15,2013-04-03 03:50:00,
2013-04-02 23:55:00,51.8,46.8,30.07,SSE,156,0.0,1.0,83,0.00,,,0.00,Wunderground v.1.15,2013-04-03 03:55:00,